SCP
0 0 0 0 0 0 0 0 0 0 0 0 0 0 0 0 1 1 2 2 2 2 2 2 2 2 3 3 4 1 1 2 1 0 1 1 0 0 1 0 0 1 0
0 0 0 0 0 0 0 0 0 0 0 0 0 0 0 0 0 1 1 1 2 2 2 2 2 2 2 1 2 1 1 3 2 1 1 1 1 0 0 0 0 0 1
0 0 0 0 0 0 0 0 0 0 0 0 0 0 0 0 0 0 1 1 2 2 3 2 2 1 1 2 1 1 1 1 2 1 1 1 1 1 1 1 1 1 1
0 0 0 0 0 0 0 0 0 0 0 0 0 0 0 0 0 0 0 1 1 1 2 2 1 2 1 1 0 0 0 0 1 1 1 1 1 1 1 1 1 1 1
0 0 0 0 0 0 0 0 0 0 0 0 0 0 0 0 0 0 0 0 1 1 1 2 2 1 1 0 0 0 0 0 1 0 0 0 1 1 1 1 0 1 1
0 0 0 0 0 0 0 0 0 0 0 0 -0 0 0 0 0 0 0 0 0 1 1 1 1 0 0 0 0 0 0 0 0 0 0 0 1 0 1 1 1 1 1
0 0 0 0 0 0 0 0 0 0 0 -0 0 0 0 0 0 0 0 0 0 0 1 1 1 1 0 0 0 0 0 0 0 1 0 0 1 1 1 1 1 1 1
0 0 0 0 0 0 0 0 0 0 0 -0 0 0 0 0 0 0 0 0 0 0 0 0 1 1 0 0 0 0 0 0 0 0 0 0 1 1 1 1 1 1 1
0 0 0 0 0 0 0 0 0 0 0 0 0 0 0 0 0 0 0 0 0 0 0 0 0 0 0 0 0 0 0 0 0 0 0 0 0 0 1 2 1 2 1
0 0 0 0 0 0 0 0 0 0 -0 0 0 0 -0 0 0 0 0 0 0 0 0 0 0 0 0 0 0 0 0 0 0 0 0 0 0 0 0 1 2 1 1
0 0 0 0 0 0 0 0 0 0 0 -0 -0 0 -0 -0 -0 -0 -0 0 0 0 0 0 0 0 0 0 0 0 0 0 0 0 0 0 0 0 0 0 1 1 1
0 0 0 0 0 0 0 0 0 -0 0 0 -0 0 0 -0 -0 -0 -0 0 0 0 0 0 0 0 0 0 0 0 0 0 0 0 0 0 0 0 0 0 0 1 1
0 0 0 0 0 0 0 -0 -0 -0 -0 0 0 0 0 0 0 -0 -0 -0 0 0 0 0 0 0 0 0 0 0 0 0 0 0 0 0 0 0 0 1 0 1 1
0 0 0 -0 0 0 0 0 0 -0 -0 -0 -0 -0 0 -0 -0 -0 -0 0 0 0 0 -0 0 0 0 0 0 0 0 0 0 0 0 0 0 0 0 0 0 0 0
0 0 0 0 0 0 0 0 0 0 0 -0 -0 0 -0 0 0 0 0 0 0 0 -0 -0 -0 -0 0 0 0 0 0 0 0 0 0 0 0 0 0 0 0 0 0
0 0 0 0 0 0 0 0 0 0 -0 -0 0 0 -0 -0 0 0 -0 -0 -0 -0 -0 -0 -0 -0 -0 0 0 0 0 0 0 0 0 0 0 0 0 0 0 0 0
0 0 0 0 0 0 0 -0 -0 0 0 -0 -0 0 -0 -0 -0 0 0 -0 -0 0 -0 -0 -0 -0 -0 -0 0 -0 -0 -0 -0 -0 0 -0 -0 -0 -0 -0 0 0 0
0 0 0 0 0 0 0 -0 -0 0 -0 -0 -0 -0 -0 0 0 0 0 0 -0 -0 -0 -0 -0 0 0 0 -0 -0 -0 -0 -0 -0 -0 0 0 0 0 0 0 0 0
0 0 0 0 0 0 0 -0 0 0 0 0 0 -0 -0 -0 -0 -0 -0 -0 -0 -0 -0 -0 -0 -0 -0 -0 -0 -0 -0 -0 0 0 0 0 0 0 0 0 0 0 0
0 0 0 0 0 0 0 0 0 0 0 -0 -0 -0 0 0 -0 0 0 0 -0 -0 -0 -0 0 0 0 0 0 0 0 0 0 0 0 0 0 0 0 0 0 0 0
0 0 0 0 0 0 0 0 0 0 0 0 0 0 -0 -0 0 0 0 0 0 -0 0 0 0 0 0 0 0 0 0 0 0 0 0 0 0 0 0 0 0 0 0
0 0 0 0 0 0 0 0 0 0 0 0 0 0 0 0 0 0 0 0 0 0 0 0 0 0 0 0 0 0 0 0 0 0 0 0 0 0 0 0 0 0 0
0 0 0 0 0 0 0 0 0 0 0 0 0 0 0 0 0 0 0 0 0 0 0 0 0 0 0 0 0 0 0 0 0 0 0 0 0 0 0 0 0 0 0
0 0 0 0 0 0 0 0 0 0 0 0 0 0 0 0 0 0 0 0 0 0 0 0 0 0 0 0 0 0 0 0 0 0 0 0 0 0 0 0 0 0 0
0 0 0 0 0 0 0 0 0 0 0 0 0 0 0 0 0 0 0 0 0 0 0 0 0 0 0 0 0 0 0 0 0 0 0 0 0 0 0 0 0 0 0
0 0 0 0 0 0 0 0 0 0 0 0 0 0 0 0 0 0 0 0 0 0 0 0 0 0 0 0 0 0 0 0 0 0 0 0 0 0 0 0 0 0 0
Wind_Speed_500mb
43 45 45 48 52 54 54 50 50 50 52 55 59 66 68 68 66 72 84 86 84 77 70 69 71 75 82 74 60 65 66 68 72 76 63 58 70 70 56 56 49 49 48
43 44 46 46 50 52 51 51 51 52 53 58 58 65 67 71 74 74 81 85 88 88 79 71 70 69 73 80 71 91 97 95 87 86 75 63 64 67 62 55 51 50 49
42 43 44 45 47 48 49 48 50 54 61 69 69 71 80 79 85 85 85 84 88 90 89 83 77 73 76 76 89 90 88 83 80 81 73 69 66 55 57 59 57 51 50
41 42 44 44 46 49 51 50 55 58 66 72 79 83 98 96 97 83 81 87 84 89 88 86 82 78 80 79 83 85 101 93 75 82 75 76 59 52 56 49 46 48 48
40 41 44 44 47 50 52 56 58 58 64 70 94 96 103 100 91 80 74 81 83 84 85 87 83 82 83 83 80 81 86 91 73 67 73 71 58 50 56 49 50 39 38
38 40 45 46 51 51 56 53 52 54 66 89 101 99 88 79 73 70 66 75 75 76 82 81 80 78 79 81 81 91 86 83 81 90 84 71 64 63 57 48 44 37 38
38 40 40 49 51 48 51 47 49 59 74 88 103 91 62 57 51 55 52 64 69 70 74 78 75 72 78 78 74 72 61 58 68 72 87 76 69 69 56 54 47 41 40
38 42 39 45 47 46 41 47 54 59 71 83 95 84 54 52 43 37 37 49 62 71 72 72 76 75 78 71 58 56 59 66 67 62 66 66 68 61 61 53 43 44 37
35 36 36 44 46 41 41 50 50 51 64 78 88 91 62 46 39 42 49 56 62 65 70 69 72 73 70 58 55 65 65 64 68 62 61 56 54 54 52 46 48 45 38
29 32 37 44 36 40 38 46 49 46 63 72 83 96 80 62 43 32 28 30 39 48 54 60 63 66 63 60 59 66 63 56 52 57 67 57 53 58 61 60 52 53 46
27 25 27 31 35 34 33 43 47 45 59 74 80 96 89 73 38 23 20 27 32 38 44 50 52 52 52 45 50 54 52 42 50 49 48 55 55 42 51 71 68 62 49
24 19 21 30 33 38 26 41 43 38 52 65 80 90 92 84 50 23 13 5 6 19 22 20 17 15 20 23 29 40 46 46 47 53 51 50 52 57 49 53 69 66 54
22 19 20 26 27 35 31 27 35 37 44 64 71 79 87 80 97 38 7 13 5 13 15 20 18 19 15 11 26 32 36 47 59 68 73 67 58 52 48 53 60 69 72
22 17 14 18 24 25 26 17 20 29 40 41 63 63 73 76 84 99 65 35 31 37 41 38 33 34 34 25 13 4 7 11 22 30 40 44 41 39 39 43 43 42 50
22 21 20 19 21 25 31 22 12 23 28 38 49 54 66 64 62 63 75 70 74 73 64 56 48 43 47 46 44 45 39 21 12 11 20 26 31 35 39 44 42 42 47
18 17 17 16 16 22 26 22 19 8 23 35 31 40 47 56 58 54 48 51 53 55 57 55 50 47 48 42 41 37 44 34 46 45 43 39 33 26 30 37 21 13 29
17 17 20 18 14 16 19 22 18 10 16 29 36 30 35 37 46 44 44 43 44 48 47 47 46 40 37 36 45 51 50 40 46 41 37 32 34 31 31 17 18 23 16
17 18 18 17 8 7 22 18 12 7 11 21 29 35 33 34 37 32 28 30 41 45 41 40 39 36 32 29 31 34 33 33 36 33 32 36 38 36 28 21 16 13 9
14 9 8 6 4 6 13 18 17 11 14 20 24 28 34 38 43 45 46 49 50 48 45 36 32 32 29 27 27 28 27 28 27 25 25 23 24 26 24 20 19 15 10
16 11 7 9 11 12 11 12 7 11 13 16 21 26 31 31 39 45 47 47 47 46 45 44 36 27 23 20 20 19 17 15 15 13 12 11 8 5 7 6 5 9 7
13 6 5 8 10 12 8 2 11 14 11 12 17 22 27 30 33 36 39 41 43 41 40 37 32 31 29 23 15 12 14 14 14 13 10 8 6 6 6 8 9 8 11
13 9 5 4 3 1 6 13 12 10 11 10 13 15 20 24 28 31 32 34 36 37 37 34 31 27 24 23 23 23 22 17 13 13 13 12 15 13 10 12 12 9 12
14 9 7 5 6 10 13 10 8 7 7 8 11 16 21 22 23 24 26 28 30 30 30 28 26 24 25 23 20 20 21 22 24 25 26 26 27 26 28 27 25 26 29
11 8 9 13 15 11 8 6 5 3 5 9 11 13 15 18 19 24 27 29 29 27 28 25 24 24 24 23 25 25 24 25 25 28 30 30 28 31 30 30 32 36 38
16 18 19 17 12 8 6 4 3 5 8 10 13 16 17 19 23 25 26 26 26 26 27 27 26 25 24 27 28 31 33 34 35 36 35 34 31 31 26 26 27 28 27
20 16 10 6 4 5 6 4 5 6 10 12 15 17 18 18 19 20 25 27 27 27 27 26 28 29 29 25 33 35 38 40 42 42 41 40 37 33 31 34 33 33 34
Wind_Direction_500mb
296 304 310 311 311 309 308 307 306 306 306 303 300 295 290 285 279 272 263 260 256 256 255 253 251 251 249 245 239 251 245 246 255 264 259 255 264 270 270 269 266 265 264
306 311 308 308 308 308 310 309 308 309 311 312 309 304 298 294 287 274 268 260 255 252 250 249 249 249 247 242 236 244 249 244 246 256 256 250 255 264 267 264 261 260 260
311 309 309 311 314 314 315 312 315 312 314 313 307 305 305 292 294 286 266 262 254 251 248 246 248 251 248 241 245 242 235 245 247 249 248 251 245 251 256 261 257 255 256
307 304 311 318 320 320 320 318 315 314 315 318 316 306 310 299 291 283 265 257 254 247 246 244 246 249 250 250 244 246 247 257 256 259 250 240 238 236 245 248 253 251 251
300 309 319 316 322 321 321 319 318 319 320 320 325 316 309 296 285 274 262 251 250 246 243 243 244 247 250 246 245 251 256 258 252 254 237 240 232 226 234 242 248 243 248
308 314 325 323 322 325 326 324 326 327 330 332 330 323 310 297 278 271 260 247 249 248 242 240 241 247 247 249 251 248 262 256 263 254 242 236 236 238 240 234 242 237 243
313 313 322 330 326 322 327 330 324 329 336 339 345 333 315 307 288 277 255 247 247 245 245 238 240 241 248 251 250 251 251 250 252 255 247 244 245 250 239 239 233 236 233
310 315 317 325 331 330 335 335 332 328 335 345 352 341 340 320 306 284 263 252 249 244 240 235 236 243 248 250 248 242 246 257 244 234 238 244 246 245 244 244 239 241 240
309 319 319 321 324 331 342 340 343 334 341 349 357 349 0 337 313 280 269 253 242 246 237 237 240 245 249 251 246 238 245 244 234 231 235 247 256 240 241 241 233 227 229
312 325 326 329 335 338 344 343 343 344 355 355 358 351 5 3 342 305 261 226 233 235 235 239 239 241 246 245 234 230 242 241 230 234 230 242 239 241 243 237 235 235 232
315 327 343 352 348 345 345 345 347 342 354 354 1 354 4 16 346 335 274 239 232 238 238 246 246 242 240 235 220 227 237 238 235 233 236 240 245 247 242 237 233 236 232
320 315 339 349 353 358 351 351 350 352 359 2 4 357 8 19 15 342 359 260 237 234 237 228 241 247 237 219 218 224 228 227 228 232 243 244 242 248 248 238 234 233 232
319 297 298 342 353 11 349 327 359 11 10 9 7 1 6 22 31 30 112 40 352 141 127 119 98 89 103 140 230 240 241 242 246 247 252 251 245 246 242 241 240 237 237
299 291 310 321 337 346 347 344 359 13 16 7 12 13 12 21 36 41 56 85 92 114 123 112 97 86 79 79 78 39 242 238 243 252 251 255 255 253 235 228 232 231 225
289 268 298 322 319 332 333 333 320 356 6 21 19 22 20 31 34 47 55 51 62 68 76 84 87 76 78 72 62 48 46 97 100 236 232 235 225 219 217 223 214 217 210
279 284 295 311 311 347 331 339 353 348 9 24 28 18 29 26 32 43 59 60 61 61 61 61 64 65 62 58 51 56 54 46 64 77 80 79 70 61 63 64 77 189 221
270 279 292 294 311 329 342 342 5 10 9 25 30 29 15 39 30 35 47 68 66 63 58 60 61 59 64 63 63 59 55 49 42 48 56 59 59 55 48 49 70 84 68
260 287 285 289 276 344 347 346 346 9 25 39 40 46 46 45 57 51 43 46 52 58 57 54 55 55 59 61 66 68 71 76 70 57 57 63 67 67 68 77 89 103 107
264 240 314 340 234 320 313 4 8 14 47 55 56 54 51 50 54 55 54 54 52 50 50 52 53 51 46 49 56 63 66 68 71 70 70 67 67 72 75 74 80 86 81
207 228 276 320 326 318 325 338 29 61 67 67 58 44 37 21 23 30 35 38 40 41 42 41 41 38 41 41 46 48 54 60 60 53 50 45 43 59 48 54 66 94 102
211 230 297 320 304 304 320 106 117 104 87 66 52 41 27 22 25 25 27 27 30 31 31 33 33 36 37 35 34 33 31 23 35 44 37 34 21 3 356 358 351 331 269
214 234 261 279 304 120 125 139 131 115 93 66 46 25 15 22 26 24 21 19 16 12 11 12 17 21 26 26 25 23 25 22 19 13 10 355 357 348 335 318 309 294 263
214 204 208 217 167 137 124 115 107 88 58 29 19 16 16 17 13 9 8 4 1 2 4 7 14 16 10 7 359 352 342 335 333 330 324 321 318 312 306 308 301 293 288
184 174 177 154 137 131 127 117 94 67 42 38 31 17 5 359 359 351 349 347 350 355 355 0 0 354 351 353 349 344 341 337 333 329 326 326 326 318 317 312 306 295 291
165 151 138 130 128 118 107 109 88 38 8 359 355 349 348 345 344 345 343 344 348 350 346 345 341 339 334 324 318 317 317 317 317 316 316 316 314 316 315 312 307 307 303
146 143 142 135 120 110 103 86 43 0 349 348 352 353 354 357 355 353 347 344 342 339 335 330 326 321 317 322 309 304 302 302 302 301 302 301 303 306 304 303 304 300 297
Wind_Speed_850mb
43 45 45 48 52 54 54 50 50 50 52 55 59 66 68 68 66 72 84 86 84 77 70 69 71 75 82 74 60 65 66 68 72 76 63 58 70 70 56 56 49 49 48
43 44 46 46 50 52 51 51 51 52 53 58 58 65 67 71 74 74 81 85 88 88 79 71 70 69 73 80 71 91 97 95 87 86 75 63 64 67 62 55 51 50 49
42 43 44 45 47 48 49 48 50 54 61 69 69 71 80 79 85 85 85 84 88 90 89 83 77 73 76 76 89 90 88 83 80 81 73 69 66 55 57 59 57 51 50
41 42 44 44 46 49 51 50 55 58 66 72 79 83 98 96 97 83 81 87 84 89 88 86 82 78 80 79 83 85 101 93 75 82 75 76 59 52 56 49 46 48 48
40 41 44 44 47 50 52 56 58 58 64 70 94 96 103 100 91 80 74 81 83 84 85 87 83 82 83 83 80 81 86 91 73 67 73 71 58 50 56 49 50 39 38
38 40 45 46 51 51 56 53 52 54 66 89 101 99 88 79 73 70 66 75 75 76 82 81 80 78 79 81 81 91 86 83 81 90 84 71 64 63 57 48 44 37 38
38 40 40 49 51 48 51 47 49 59 74 88 103 91 62 57 51 55 52 64 69 70 74 78 75 72 78 78 74 72 61 58 68 72 87 76 69 69 56 54 47 41 40
38 42 39 45 47 46 41 47 54 59 71 83 95 84 54 52 43 37 37 49 62 71 72 72 76 75 78 71 58 56 59 66 67 62 66 66 68 61 61 53 43 44 37
35 36 36 44 46 41 41 50 50 51 64 78 88 91 62 46 39 42 49 56 62 65 70 69 72 73 70 58 55 65 65 64 68 62 61 56 54 54 52 46 48 45 38
29 32 37 44 36 40 38 46 49 46 63 72 83 96 80 62 43 32 28 30 39 48 54 60 63 66 63 60 59 66 63 56 52 57 67 57 53 58 61 60 52 53 46
27 25 27 31 35 34 33 43 47 45 59 74 80 96 89 73 38 23 20 27 32 38 44 50 52 52 52 45 50 54 52 42 50 49 48 55 55 42 51 71 68 62 49
24 19 21 30 33 38 26 41 43 38 52 65 80 90 92 84 50 23 13 5 6 19 22 20 17 15 20 23 29 40 46 46 47 53 51 50 52 57 49 53 69 66 54
22 19 20 26 27 35 31 27 35 37 44 64 71 79 87 80 97 38 7 13 5 13 15 20 18 19 15 11 26 32 36 47 59 68 73 67 58 52 48 53 60 69 72
22 17 14 18 24 25 26 17 20 29 40 41 63 63 73 76 84 99 65 35 31 37 41 38 33 34 34 25 13 4 7 11 22 30 40 44 41 39 39 43 43 42 50
22 21 20 19 21 25 31 22 12 23 28 38 49 54 66 64 62 63 75 70 74 73 64 56 48 43 47 46 44 45 39 21 12 11 20 26 31 35 39 44 42 42 47
18 17 17 16 16 22 26 22 19 8 23 35 31 40 47 56 58 54 48 51 53 55 57 55 50 47 48 42 41 37 44 34 46 45 43 39 33 26 30 37 21 13 29
17 17 20 18 14 16 19 22 18 10 16 29 36 30 35 37 46 44 44 43 44 48 47 47 46 40 37 36 45 51 50 40 46 41 37 32 34 31 31 17 18 23 16
17 18 18 17 8 7 22 18 12 7 11 21 29 35 33 34 37 32 28 30 41 45 41 40 39 36 32 29 31 34 33 33 36 33 32 36 38 36 28 21 16 13 9
14 9 8 6 4 6 13 18 17 11 14 20 24 28 34 38 43 45 46 49 50 48 45 36 32 32 29 27 27 28 27 28 27 25 25 23 24 26 24 20 19 15 10
16 11 7 9 11 12 11 12 7 11 13 16 21 26 31 31 39 45 47 47 47 46 45 44 36 27 23 20 20 19 17 15 15 13 12 11 8 5 7 6 5 9 7
13 6 5 8 10 12 8 2 11 14 11 12 17 22 27 30 33 36 39 41 43 41 40 37 32 31 29 23 15 12 14 14 14 13 10 8 6 6 6 8 9 8 11
13 9 5 4 3 1 6 13 12 10 11 10 13 15 20 24 28 31 32 34 36 37 37 34 31 27 24 23 23 23 22 17 13 13 13 12 15 13 10 12 12 9 12
14 9 7 5 6 10 13 10 8 7 7 8 11 16 21 22 23 24 26 28 30 30 30 28 26 24 25 23 20 20 21 22 24 25 26 26 27 26 28 27 25 26 29
11 8 9 13 15 11 8 6 5 3 5 9 11 13 15 18 19 24 27 29 29 27 28 25 24 24 24 23 25 25 24 25 25 28 30 30 28 31 30 30 32 36 38
16 18 19 17 12 8 6 4 3 5 8 10 13 16 17 19 23 25 26 26 26 26 27 27 26 25 24 27 28 31 33 34 35 36 35 34 31 31 26 26 27 28 27
20 16 10 6 4 5 6 4 5 6 10 12 15 17 18 18 19 20 25 27 27 27 27 26 28 29 29 25 33 35 38 40 42 42 41 40 37 33 31 34 33 33 34
Wind_Direction_850mb
296 304 310 311 311 309 308 307 306 306 306 303 300 295 290 285 279 272 263 260 256 256 255 253 251 251 249 245 239 251 245 246 255 264 259 255 264 270 270 269 266 265 264
306 311 308 308 308 308 310 309 308 309 311 312 309 304 298 294 287 274 268 260 255 252 250 249 249 249 247 242 236 244 249 244 246 256 256 250 255 264 267 264 261 260 260
311 309 309 311 314 314 315 312 315 312 314 313 307 305 305 292 294 286 266 262 254 251 248 246 248 251 248 241 245 242 235 245 247 249 248 251 245 251 256 261 257 255 256
307 304 311 318 320 320 320 318 315 314 315 318 316 306 310 299 291 283 265 257 254 247 246 244 246 249 250 250 244 246 247 257 256 259 250 240 238 236 245 248 253 251 251
300 309 319 316 322 321 321 319 318 319 320 320 325 316 309 296 285 274 262 251 250 246 243 243 244 247 250 246 245 251 256 258 252 254 237 240 232 226 234 242 248 243 248
308 314 325 323 322 325 326 324 326 327 330 332 330 323 310 297 278 271 260 247 249 248 242 240 241 247 247 249 251 248 262 256 263 254 242 236 236 238 240 234 242 237 243
313 313 322 330 326 322 327 330 324 329 336 339 345 333 315 307 288 277 255 247 247 245 245 238 240 241 248 251 250 251 251 250 252 255 247 244 245 250 239 239 233 236 233
310 315 317 325 331 330 335 335 332 328 335 345 352 341 340 320 306 284 263 252 249 244 240 235 236 243 248 250 248 242 246 257 244 234 238 244 246 245 244 244 239 241 240
309 319 319 321 324 331 342 340 343 334 341 349 357 349 0 337 313 280 269 253 242 246 237 237 240 245 249 251 246 238 245 244 234 231 235 247 256 240 241 241 233 227 229
312 325 326 329 335 338 344 343 343 344 355 355 358 351 5 3 342 305 261 226 233 235 235 239 239 241 246 245 234 230 242 241 230 234 230 242 239 241 243 237 235 235 232
315 327 343 352 348 345 345 345 347 342 354 354 1 354 4 16 346 335 274 239 232 238 238 246 246 242 240 235 220 227 237 238 235 233 236 240 245 247 242 237 233 236 232
320 315 339 349 353 358 351 351 350 352 359 2 4 357 8 19 15 342 359 260 237 234 237 228 241 247 237 219 218 224 228 227 228 232 243 244 242 248 248 238 234 233 232
319 297 298 342 353 11 349 327 359 11 10 9 7 1 6 22 31 30 112 40 352 141 127 119 98 89 103 140 230 240 241 242 246 247 252 251 245 246 242 241 240 237 237
299 291 310 321 337 346 347 344 359 13 16 7 12 13 12 21 36 41 56 85 92 114 123 112 97 86 79 79 78 39 242 238 243 252 251 255 255 253 235 228 232 231 225
289 268 298 322 319 332 333 333 320 356 6 21 19 22 20 31 34 47 55 51 62 68 76 84 87 76 78 72 62 48 46 97 100 236 232 235 225 219 217 223 214 217 210
279 284 295 311 311 347 331 339 353 348 9 24 28 18 29 26 32 43 59 60 61 61 61 61 64 65 62 58 51 56 54 46 64 77 80 79 70 61 63 64 77 189 221
270 279 292 294 311 329 342 342 5 10 9 25 30 29 15 39 30 35 47 68 66 63 58 60 61 59 64 63 63 59 55 49 42 48 56 59 59 55 48 49 70 84 68
260 287 285 289 276 344 347 346 346 9 25 39 40 46 46 45 57 51 43 46 52 58 57 54 55 55 59 61 66 68 71 76 70 57 57 63 67 67 68 77 89 103 107
264 240 314 340 234 320 313 4 8 14 47 55 56 54 51 50 54 55 54 54 52 50 50 52 53 51 46 49 56 63 66 68 71 70 70 67 67 72 75 74 80 86 81
207 228 276 320 326 318 325 338 29 61 67 67 58 44 37 21 23 30 35 38 40 41 42 41 41 38 41 41 46 48 54 60 60 53 50 45 43 59 48 54 66 94 102
211 230 297 320 304 304 320 106 117 104 87 66 52 41 27 22 25 25 27 27 30 31 31 33 33 36 37 35 34 33 31 23 35 44 37 34 21 3 356 358 351 331 269
214 234 261 279 304 120 125 139 131 115 93 66 46 25 15 22 26 24 21 19 16 12 11 12 17 21 26 26 25 23 25 22 19 13 10 355 357 348 335 318 309 294 263
214 204 208 217 167 137 124 115 107 88 58 29 19 16 16 17 13 9 8 4 1 2 4 7 14 16 10 7 359 352 342 335 333 330 324 321 318 312 306 308 301 293 288
184 174 177 154 137 131 127 117 94 67 42 38 31 17 5 359 359 351 349 347 350 355 355 0 0 354 351 353 349 344 341 337 333 329 326 326 326 318 317 312 306 295 291
165 151 138 130 128 118 107 109 88 38 8 359 355 349 348 345 344 345 343 344 348 350 346 345 341 339 334 324 318 317 317 317 317 316 316 316 314 316 315 312 307 307 303
146 143 142 135 120 110 103 86 43 0 349 348 352 353 354 357 355 353 347 344 342 339 335 330 326 321 317 322 309 304 302 302 302 301 302 301 303 306 304 303 304 300 297